[[{"header":{"parameterUnit":"m.s-1","parameterCategory":1,"la1":30.2991,"la2":30.254,"lo1":-89.0895,"lo2":-89.0444,"dy":0.0017,"dx":0.0017,"nx":28,"ny":28,"refTime":"2025-07-27T21:00:00:Z","depth":0,"parameterNumber":2,"parameterNumberName":"U-component_of_WINDS"},"data":[0,0,0,0,0,0,0,0,0,0,0,0,0,0,0,0,0,0,0,0,0,0,0,0,0,0,0,0,0,0,0,0,0,0,0,0,0,0,0,0,0,0,0,0,0,0,0,0,0,0,0,0,0,0,0,0,0,0,1.0877,1.0878,0,1.0947,1.0947,1.0948,1.0958,1.0958,1.0957,1.0956,1.103,1.1032,1.1035,0,0,0,0,0,0,0,0,0,0,0,0,0,1.0758,1.076,1.0877,1.0878,1.0879,1.0946,1.0947,1.0948,1.0958,1.0958,1.0957,1.0956,1.1029,1.1032,1.1035,0,0,0,0,0,0,0,0,0,0,0,0,0,1.0817,1.0761,1.0877,1.0892,1.0894,1.0946,1.0947,1.0949,1.0959,1.0958,1.0957,1.0956,1.1028,1.1032,1.1036,1.1079,0,0,1.1047,1.1049,0,0,0,0,0,0,0,0,1.0813,1.0821,1.0889,1.0891,1.0893,1.0943,1.0932,1.0992,1.0959,1.0934,1.0956,1.0955,1.1002,1.1008,1.1023,1.1082,1.1085,1.1048,1.105,1.1052,1.1053,0,0,0,0,0,0,0,1.0809,1.0818,1.0905,1.089,1.0893,1.0897,1.0904,1.0944,1.0973,1.0936,1.0937,1.0945,1.1003,1.1019,1.1025,1.1086,1.1048,1.1051,1.1053,1.1055,1.1188,1.1189,0,0,0,0,0,0,1.0802,1.0815,1.0903,1.0907,1.085,1.09,1.0908,1.0928,1.0972,1.0978,1.0946,1.0945,1.1013,1.102,1.1027,1.1083,1.1052,1.1055,1.1057,1.1187,1.1188,1.1189,0,0,0,0,0,0,1.0799,1.081,1.09,1.0861,1.0873,1.0903,1.0925,1.093,1.0946,1.0979,1.0985,1.0957,1.1013,1.1022,1.1066,1.1086,1.1057,1.106,1.1185,1.1187,1.1189,1.1193,0,0,0,0,0,0,1.0796,1.0809,1.0824,1.0861,1.0875,1.0936,1.0926,1.0932,1.0952,1.0952,1.0991,1.0997,1.1013,1.1061,1.107,1.1091,1.1063,1.1184,1.1186,1.1188,1.1192,1.1195,1.1198,0,0,0,0,0,1.0791,1.0822,1.0825,1.0835,1.0894,1.0937,1.0945,1.0962,1.0954,1.0971,1.0993,1.0996,1.1082,1.1065,1.1076,1.1098,1.1182,1.1185,1.1188,1.119,1.1194,1.1198,0,0,0,0,0,0,1.0787,1.0827,1.083,1.0874,1.0902,1.0939,1.096,1.0965,1.0997,1.0996,1.1016,1.1025,1.1069,1.1088,1.1068,1.1144,1.1132,1.1137,1.113,1.1134,1.1137,1.1133,1.1067,0,0,0,0,0,1.0791,1.0821,1.0855,1.089,1.0904,1.093,1.0949,1.096,1.099,1.1002,1.1027,1.1057,1.1092,1.1114,1.1147,1.1194,1.1205,1.1215,1.1218,1.1221,1.1225,1.1255,1.1261,1.1198,1.1198,1.1198,0,0,1.0799,1.0825,1.0843,1.089,1.0913,1.0946,1.094,1.0974,1.0999,1.1008,1.1052,1.1071,1.1106,1.1153,1.1175,1.117,1.1245,1.1224,1.1226,1.1229,1.1259,1.1264,1.127,1.12,1.12,1.12,0,0,1.0832,1.0854,1.0887,1.091,1.0945,1.0963,1.0971,1.1007,1.1021,1.1065,1.1073,1.1104,1.1161,1.1187,1.1208,1.1253,1.1258,1.1263,1.1281,1.1309,1.1314,1.1319,1.1338,1.1344,1.1267,1.1267,1.1267,0,1.0839,1.0887,1.0903,1.0938,1.096,1.0969,1.1004,1.1026,1.1071,1.1086,1.108,1.1155,1.1179,1.1233,1.1245,1.126,1.1272,1.1259,1.1312,1.1317,1.1321,1.134,1.1346,1.1268,1.1268,1.1268,1.1268,0,1.0895,1.0928,1.0951,1.0994,1.1018,1.1053,1.1076,1.1099,1.1108,1.1127,1.1174,1.1203,1.1244,1.1257,1.1266,1.1314,1.131,1.1308,1.1297,1.1328,1.1345,1.1352,1.1269,1.1269,1.1268,1.1268,0,0,1.0926,1.0979,1.0987,1.1008,1.1048,1.1076,1.1112,1.1151,1.1172,1.1202,1.1235,1.1285,1.1284,1.1307,1.1319,1.1344,1.1382,1.1339,1.134,1.1348,1.144,1.1443,1.1451,1.1385,1.1386,1.1387,1.1438,0,1.0965,1.1029,1.1046,1.1101,1.1134,1.1145,1.1177,1.1206,1.1225,1.1257,1.1278,1.1314,1.1308,1.1323,1.1348,1.1372,1.1401,1.1368,1.1418,1.142,1.1411,1.146,1.1463,1.1509,1.1445,1.1446,1.1447,0,1.1019,1.1052,1.111,1.1149,1.1164,1.1192,1.1231,1.1261,1.1295,1.1307,1.1335,1.1345,1.1386,1.1372,1.1429,1.1407,1.1428,1.1443,1.1446,1.1452,1.1436,1.147,1.1524,1.1532,1.1457,1.1456,1.1456,0,1.104,1.1098,1.1141,1.1158,1.1204,1.1224,1.1244,1.1278,1.1301,1.1336,1.1352,1.1391,1.1413,1.1443,1.1465,1.1452,1.1522,1.1509,1.1536,1.1535,1.1551,1.155,1.1611,1.1561,1.1561,1.1561,1.1561,0,1.1083,1.1119,1.1151,1.1178,1.1219,1.1239,1.1281,1.1301,1.1332,1.1364,1.1375,1.1406,1.1432,1.1467,1.1484,1.1531,1.154,1.1553,1.1557,1.1553,1.1552,1.1568,1.1567,1.1563,1.1562,1.1562,1.1562,0,1.1113,1.1135,1.1184,1.1223,1.1234,1.1264,1.1298,1.1326,1.1346,1.1387,1.1398,1.1429,1.1471,1.1496,1.1548,1.156,1.1613,1.1615,1.1601,1.1604,1.163,1.1628,1.1706,1.1718,1.1658,1.1658,1.1659,0,1.1139,1.1168,1.1211,1.1233,1.1254,1.129,1.1314,1.1336,1.1361,1.1404,1.1427,1.147,1.1505,1.1572,1.16,1.1641,1.1646,1.167,1.1652,1.1648,1.165,1.1649,1.1653,1.1674,1.1675,1.1675,1.1675,0,1.1186,1.1196,1.1231,1.127,1.1299,1.1331,1.1363,1.1381,1.1409,1.1437,1.148,1.1507,1.1562,1.1605,1.1649,1.1671,1.1679,1.1681,1.169,1.1686,1.1678,1.1686,1.1612,1.1679,1.1679,1.1678,1.1678,1.1678,1.1217,1.1244,1.1279,1.1318,1.1344,1.1374,1.1403,1.1427,1.1463,1.1509,1.1519,1.1565,1.1602,1.1662,1.1686,1.1724,1.172,1.1732,1.1735,1.1738,1.1741,1.1671,1.1731,1.1731,1.1731,1.1731,1.1731,0,1.1266,1.129,1.1325,1.137,1.1402,1.1405,1.1441,1.1468,1.1508,1.1541,1.1576,1.1627,1.1669,1.1702,1.1746,1.177,1.1775,1.1781,1.1781,1.1786,1.174,1.1729,1.1777,1.1777,1.1777,1.1777,1.1777,1.1777,1.1296,1.1342,1.1357,1.1418,1.1441,1.1486,1.1507,1.1536,1.1563,1.1619,1.1654,1.1675,1.1709,1.1756,1.1796,1.1805,1.1822,1.1828,1.1837,1.1794,1.1789,1.1785,1.1775,1.1831,1.1831,1.1881,1.1881,1.1882]},{"header":{"parameterUnit":"m.s-1","parameterCategory":1,"la1":30.2991,"la2":30.254,"lo1":-89.0895,"lo2":-89.0444,"dy":0.0017,"dx":0.0017,"nx":28,"ny":28,"refTime":"2025-07-27T21:00:00:Z","depth":0,"parameterNumber":3,"parameterNumberName":"V-component_of_WINDS"},"data":[0,0,0,0,0,0,0,0,0,0,0,0,0,0,0,0,0,0,0,0,0,0,0,0,0,0,0,0,0,0,0,0,0,0,0,0,0,0,0,0,0,0,0,0,0,0,0,0,0,0,0,0,0,0,0,0,0,0,-1.4381,-1.4381,0,-1.4343,-1.4342,-1.4342,-1.4392,-1.4394,-1.4396,-1.4398,-1.4354,-1.4351,-1.4348,0,0,0,0,0,0,0,0,0,0,0,0,0,-1.4495,-1.4493,-1.4381,-1.4381,-1.438,-1.4343,-1.4342,-1.4342,-1.4392,-1.4394,-1.4396,-1.4399,-1.4355,-1.4351,-1.4348,0,0,0,0,0,0,0,0,0,0,0,0,0,-1.445,-1.4492,-1.4381,-1.4401,-1.4402,-1.4343,-1.4342,-1.4342,-1.4391,-1.4394,-1.4397,-1.44,-1.4356,-1.4352,-1.4347,-1.4266,0,0,-1.4334,-1.4332,0,0,0,0,0,0,0,0,-1.4453,-1.4446,-1.4399,-1.44,-1.4401,-1.4375,-1.4367,-1.4316,-1.4391,-1.4395,-1.4398,-1.4401,-1.4358,-1.4354,-1.4341,-1.4264,-1.4262,-1.4334,-1.4331,-1.4329,-1.4328,0,0,0,0,0,0,0,-1.4456,-1.4448,-1.4366,-1.4398,-1.4399,-1.4411,-1.4407,-1.4357,-1.4362,-1.4395,-1.4399,-1.4394,-1.436,-1.4345,-1.434,-1.4261,-1.4334,-1.433,-1.4327,-1.4326,-1.4117,-1.4114,0,0,0,0,0,0,-1.4457,-1.445,-1.4367,-1.4365,-1.4434,-1.4406,-1.4403,-1.4381,-1.4363,-1.4363,-1.4392,-1.4396,-1.4351,-1.4345,-1.4339,-1.4244,-1.4329,-1.4325,-1.4323,-1.412,-1.4117,-1.4113,0,0,0,0,0,0,-1.4459,-1.4449,-1.4369,-1.4408,-1.4399,-1.4402,-1.4376,-1.4378,-1.4364,-1.436,-1.4361,-1.4376,-1.4353,-1.4345,-1.4284,-1.4243,-1.4323,-1.4319,-1.4124,-1.4119,-1.4115,-1.4052,0,0,0,0,0,0,-1.4462,-1.445,-1.4419,-1.4407,-1.4397,-1.4316,-1.4374,-1.4376,-1.4357,-1.4363,-1.4345,-1.4345,-1.4354,-1.429,-1.428,-1.4238,-1.4316,-1.4127,-1.4122,-1.4116,-1.4057,-1.4046,-1.4035,0,0,0,0,0,-1.4466,-1.4401,-1.4417,-1.4407,-1.4359,-1.4313,-1.4307,-1.4321,-1.4353,-1.4322,-1.432,-1.4345,-1.4249,-1.4284,-1.4272,-1.4229,-1.413,-1.4123,-1.4117,-1.4062,-1.4048,-1.4036,0,0,0,0,0,0,-1.4406,-1.44,-1.4418,-1.4347,-1.4331,-1.4322,-1.4283,-1.4304,-1.4277,-1.4283,-1.43,-1.4295,-1.4231,-1.4224,-1.4263,-1.415,-1.4195,-1.4186,-1.4157,-1.4143,-1.4133,-1.4136,-1.4312,0,0,0,0,0,-1.4385,-1.4349,-1.4346,-1.4284,-1.4275,-1.428,-1.4261,-1.4273,-1.4256,-1.4248,-1.4242,-1.4223,-1.4189,-1.4165,-1.4133,-1.4056,-1.4054,-1.4021,-1.401,-1.4001,-1.3993,-1.3954,-1.3939,-1.4092,-1.4092,-1.4092,0,0,-1.434,-1.4332,-1.4309,-1.4272,-1.426,-1.4223,-1.4274,-1.4231,-1.4204,-1.4241,-1.4185,-1.4179,-1.4159,-1.4091,-1.406,-1.4083,-1.395,-1.3992,-1.3985,-1.3982,-1.3945,-1.3931,-1.3918,-1.4087,-1.4088,-1.4089,0,0,-1.424,-1.423,-1.4179,-1.4167,-1.415,-1.4154,-1.4142,-1.413,-1.4129,-1.4073,-1.4101,-1.4067,-1.4007,-1.3993,-1.3977,-1.3874,-1.3897,-1.3863,-1.3805,-1.3767,-1.3755,-1.3744,-1.3709,-1.3696,-1.3855,-1.3854,-1.3854,0,-1.4186,-1.4132,-1.4149,-1.4106,-1.4089,-1.4124,-1.4072,-1.4059,-1.4031,-1.4018,-1.4044,-1.3971,-1.396,-1.389,-1.3865,-1.3851,-1.3837,-1.3865,-1.3755,-1.3745,-1.3735,-1.3702,-1.3688,-1.3851,-1.3851,-1.3851,-1.3852,0,-1.4067,-1.4029,-1.399,-1.3965,-1.3944,-1.3896,-1.3905,-1.3881,-1.3896,-1.3897,-1.384,-1.3829,-1.3796,-1.378,-1.3792,-1.3711,-1.3726,-1.3753,-1.3799,-1.3717,-1.3686,-1.3673,-1.3845,-1.3846,-1.3848,-1.3848,0,0,-1.3927,-1.3915,-1.39,-1.389,-1.3874,-1.3845,-1.3799,-1.3769,-1.3749,-1.3728,-1.3691,-1.364,-1.3666,-1.3649,-1.366,-1.3626,-1.3547,-1.3657,-1.3657,-1.3638,-1.3459,-1.344,-1.3425,-1.3561,-1.3559,-1.3557,-1.3461,0,-1.3829,-1.3751,-1.3766,-1.369,-1.3656,-1.3689,-1.3649,-1.3635,-1.3636,-1.3606,-1.3606,-1.3571,-1.3607,-1.3597,-1.3565,-1.3563,-1.3511,-1.357,-1.3526,-1.3525,-1.3532,-1.3408,-1.3387,-1.3297,-1.3449,-1.3447,-1.3445,0,-1.3703,-1.3681,-1.3602,-1.3595,-1.3581,-1.3545,-1.352,-1.3491,-1.3475,-1.3478,-1.346,-1.3478,-1.3432,-1.3478,-1.3416,-1.3456,-1.3439,-1.3435,-1.3432,-1.3429,-1.3481,-1.3403,-1.3269,-1.3256,-1.3426,-1.3427,-1.3429,0,-1.3611,-1.3561,-1.3509,-1.3499,-1.3488,-1.3462,-1.3456,-1.3444,-1.3425,-1.3403,-1.3391,-1.3362,-1.3347,-1.3324,-1.3334,-1.3366,-1.327,-1.3316,-1.3271,-1.3271,-1.325,-1.3251,-1.3112,-1.3237,-1.3237,-1.3237,-1.3237,0,-1.35,-1.3451,-1.3468,-1.3435,-1.3381,-1.3399,-1.3345,-1.3342,-1.3332,-1.3299,-1.3325,-1.3293,-1.3308,-1.3277,-1.3284,-1.3232,-1.3224,-1.3226,-1.3228,-1.3224,-1.3224,-1.3214,-1.3221,-1.3234,-1.3234,-1.3235,-1.3236,0,-1.3388,-1.3397,-1.3342,-1.3337,-1.3335,-1.3296,-1.3291,-1.326,-1.3264,-1.3222,-1.3213,-1.3218,-1.3184,-1.3191,-1.3153,-1.3158,-1.3093,-1.3102,-1.3099,-1.3102,-1.3057,-1.3062,-1.2907,-1.2889,-1.3024,-1.3022,-1.3021,0,-1.3317,-1.3281,-1.3273,-1.3254,-1.3247,-1.3215,-1.3197,-1.3213,-1.3193,-1.3175,-1.3147,-1.3115,-1.3091,-1.3034,-1.3034,-1.3005,-1.3015,-1.2963,-1.3011,-1.3008,-1.3016,-1.3019,-1.3016,-1.2954,-1.2952,-1.2951,-1.295,0,-1.3191,-1.3198,-1.3172,-1.3149,-1.3127,-1.3109,-1.3093,-1.3075,-1.309,-1.3066,-1.3033,-1.3014,-1.2977,-1.2945,-1.2919,-1.2912,-1.2933,-1.2935,-1.2923,-1.2919,-1.2919,-1.2921,-1.3075,-1.2938,-1.2939,-1.294,-1.2941,-1.2941,-1.3099,-1.3069,-1.3059,-1.303,-1.302,-1.3005,-1.2977,-1.2978,-1.2951,-1.2923,-1.2933,-1.2895,-1.2882,-1.285,-1.284,-1.281,-1.2829,-1.2812,-1.2808,-1.2804,-1.2799,-1.2923,-1.2805,-1.2805,-1.2805,-1.2806,-1.2806,0,-1.2975,-1.2972,-1.2945,-1.2923,-1.29,-1.2924,-1.2908,-1.2887,-1.2854,-1.2841,-1.2817,-1.2779,-1.2749,-1.2747,-1.2719,-1.2696,-1.2705,-1.2688,-1.269,-1.2689,-1.2782,-1.2796,-1.2681,-1.2681,-1.2681,-1.2681,-1.2681,-1.2681,-1.2909,-1.286,-1.2866,-1.2813,-1.2809,-1.2774,-1.2763,-1.2749,-1.2739,-1.2697,-1.2673,-1.2672,-1.2664,-1.2636,-1.2609,-1.2609,-1.2598,-1.2578,-1.2582,-1.2669,-1.2682,-1.2694,-1.2707,-1.2575,-1.2575,-1.2491,-1.249,-1.249]}]]